Hourly Data Report for December 17, 2006

TORONTO CITY
ONTARIO

43°40'00.000" N
79°24'00.000" W
112.50 m
6158355
71508
XTO

Download Data

Hourly Data (December 2006)
Hourly Data Report for December 17, 2006
TIME
LST
Temp Definition
°C
Dew Point Definition
°C
Rel Hum Definition
%
Precip. Amount Definition
mm

Wind Dir Definition
10's deg

Wind Spd Definition
km/h
Visibility Definition
km
Stn Press Definition
kPa
Hmdx Definition


Wind Chill Definition


Weather Definition


00:00 5.8 1.2 72   LegendMM LegendMM   100.15     LegendNANA
01:00 5.7 1.5 74   LegendMM LegendMM   100.06     LegendNANA
02:00 6.0 2.0 75   LegendMM LegendMM   99.99     LegendNANA
03:00 6.9 2.5 74   LegendMM LegendMM   99.98     LegendNANA
04:00 7.6 3.4 75   LegendMM LegendMM   99.95     LegendNANA
05:00 8.7 5.4 80   LegendMM LegendMM   99.94     LegendNANA
06:00 8.6 5.7 82   LegendMM LegendMM   99.92     LegendNANA
07:00 9.3 6.4 82   LegendMM LegendMM   99.92     LegendNANA
08:00 10.0 7.2 83   LegendMM LegendMM   99.93     LegendNANA
09:00 10.1 7.8 86   LegendMM LegendMM   100.01     LegendNANA
10:00 11.2 9.0 86   LegendMM LegendMM   100.07     LegendNANA
11:00 11.8 9.4 85   LegendMM LegendMM   100.05     LegendNANA
12:00 12.6 9.9 84   LegendMM LegendMM   100.06     LegendNANA
13:00 13.1 7.6 69   LegendMM LegendMM   100.02     LegendNANA
14:00 12.9 2.7 50   LegendMM LegendMM   100.06     LegendNANA
15:00 12.8 1.9 47   LegendMM LegendMM   100.08     LegendNANA
16:00 11.3 1.5 51   LegendMM LegendMM   100.19     LegendNANA
17:00 10.1 0.6 52   LegendMM LegendMM   100.28     LegendNANA
18:00 8.8 0.7 57   LegendMM LegendMM   100.32     LegendNANA
19:00 8.5 0.3 56   LegendMM LegendMM   100.37     LegendNANA
20:00 8.1 0.5 59   LegendMM LegendMM   100.40     LegendNANA
21:00 7.5 0.5 61   LegendMM LegendMM   100.41     LegendNANA
22:00 7.6 -0.4 57   LegendMM LegendMM   100.43     LegendNANA
23:00 7.6 -0.1 58   LegendMM LegendMM   100.41     LegendNANA

Notes on Data Quality.

Legend

  • E = Estimated
  • M = Missing
  • NA = Not Available*
  • [empty] = Indicates an unobserved value
Date modified: